sat.trackr.live / text

‹ back to catalog

UWE-3

NORAD 39446 · 2013-066AG

PAYLOAD ACTIVE UNKNOWN

§ Identity

Operator
Country
GER
Launch date
2013-11-21
Launch site
DLS
Launch vehicle
Mass (kg)
RCS (m²)
0.03

Purposes: comms, tech_demo

External: N2YO · Heavens-Above · Gunter

§ Orbital elements

Epoch: 2026-09-12T10:15:49.705632Z

Period
96.16 min
Inclination
97.8789°
Eccentricity
0.0049274
Mean motion
14.97533493 rev/d
Perigee alt
540.3 km
Apogee alt
608.8 km
Semi-major
6,952.7 km
B*
3.2704e-4
RAAN
212.1574°
Arg perigee
30.7163°
Mean anomaly
329.6926°
Rev number
69,063

§ Raw data

UWE-31 39446U 13066AG  26255.42765863  .00003848  00000+0  32704-3 0  99942 39446  97.8789 212.1574 0049274  30.7163 329.6926 14.97533493690633

JSON: /api/v1/satellites/39446 · /tle

For live sub-satellite position, see the globe view (requires WebGL).

§ Visibility from observer

Set your observer location to see the next 7 days of passes ≥ 10°. The values pass through the URL so the page stays shareable.

No JS? Fill the form by hand. The geolocation button needs JavaScript.

§ Radio — SatNOGS DB

ModeDescriptionDownlinkUplink
FSK 9k6 FSK TLM 437.385 MHz
FSK PE0SAT - 9k6 FSK TLM 437.384 MHz
FSK Transmitter 436.395 MHz

3 transmitters · refreshed weekly from db.satnogs.org